When you browse on this site, cookies collect data to enhance your experience and personalize the content and advertising you see.
Visit our Privacy Policy to learn more. By continuing to use the site, you agree to this use of cookies and data.
  • In United Kingdom
  • List of Countries
  • For 7 days
  • Water Temperature
  • Satellite Maps
  • Weather Map
  • Weather Widgets
  • user-avatar
    Login

    Hourly Weather Daloa

    Today, 20 April, Saturday

    Time Temperature Precipitation Wind Pressure Humidity
    00:00 +24°C° 0 mm 0 mps 736 mmHg 96%
    01:00 +26°C° 0 mm 1 mps 736 mmHg 96%
    02:00 +26°C° 0 mm 1 mps 736 mmHg 97%
    03:00 +26°C° 0 mm 1 mps 735 mmHg 97%
    04:00 +25°C° 0 mm 1 mps 736 mmHg 98%
    05:00 +25°C° 0 mm 1 mps 736 mmHg 98%
    06:00 +25°C° 0 mm 1 mps 736 mmHg 98%
    07:00 +26°C° 0 mm 1 mps 736 mmHg 92%
    08:00 +28°C° 0 mm 1 mps 736 mmHg 87%
    09:00 +29°C° 0 mm 1 mps 737 mmHg 81%
    10:00 +31°C° 0 mm 1 mps 736 mmHg 70%
    11:00 +33°C° 0 mm 1 mps 736 mmHg 60%
    12:00 +36°C° 0 mm 2 mps 736 mmHg 48%
    13:00 +36°C° 0 mm 1 mps 736 mmHg 46%
    14:00 +36°C° 0 mm 1 mps 735 mmHg 44%
    15:00 +37°C° 0 mm 1 mps 734 mmHg 41%
    16:00 +36°C° 0 mm 1 mps 734 mmHg 47%
    17:00 +34°C° 0 mm 1 mps 734 mmHg 52%
    18:00 +33°C° 0 mm 1 mps 734 mmHg 58%
    19:00 +32°C° 0 mm 1 mps 734 mmHg 61%
    20:00 +30°C° 0 mm 1 mps 735 mmHg 64%
    21:00 +29°C° 0 mm 2 mps 735 mmHg 67%
    22:00 +29°C° 0 mm 2 mps 735 mmHg 72%
    23:00 +28°C° 0 mm 2 mps 736 mmHg 78%

    Tomorrow, 21 April, Sunday

    Time Temperature Precipitation Wind Pressure Humidity
    00:00 +27°C° 0 mm 2 mps 736 mmHg 83%
    01:00 +27°C° 0 mm 2 mps 736 mmHg 86%
    02:00 +27°C° 0 mm 2 mps 736 mmHg 88%
    03:00 +26°C° 0 mm 2 mps 735 mmHg 91%
    04:00 +26°C° 0.6 mm 1 mps 735 mmHg 93%
    05:00 +26°C° 0.6 mm 1 mps 735 mmHg 95%
    06:00 +26°C° 0.6 mm 1 mps 736 mmHg 97%
    07:00 +27°C° 1.6 mm 1 mps 736 mmHg 92%
    08:00 +28°C° 1.6 mm 1 mps 737 mmHg 88%
    09:00 +29°C° 1.6 mm 1 mps 737 mmHg 84%
    10:00 +31°C° 0.1 mm 1 mps 737 mmHg 72%
    11:00 +34°C° 0.1 mm 1 mps 736 mmHg 59%
    12:00 +36°C° 0.1 mm 1 mps 736 mmHg 47%
    13:00 +37°C° 0 mm 1 mps 735 mmHg 44%
    14:00 +36°C° 0 mm 0 mps 734 mmHg 41%
    15:00 +37°C° 0 mm 0 mps 733 mmHg 38%
    16:00 +35°C° 0 mm 0 mps 733 mmHg 44%
    17:00 +33°C° 0 mm 0 mps 733 mmHg 49%
    18:00 +32°C° 0 mm 0 mps 733 mmHg 55%
    19:00 +30°C° 0 mm 0 mps 733 mmHg 59%
    20:00 +29°C° 0 mm 0 mps 734 mmHg 63%
    21:00 +28°C° 0 mm 0 mps 734 mmHg 66%
    22:00 +29°C° 0.2 mm 1 mps 735 mmHg 73%
    23:00 +28°C° 0.2 mm 1 mps 735 mmHg 79%

    Day after tomorrow, 22 April, Monday

    Time Temperature Precipitation Wind Pressure Humidity
    00:00 +27°C° 0.2 mm 1 mps 735 mmHg 85%
    01:00 +27°C° 0 mm 1 mps 735 mmHg 88%
    02:00 +26°C° 0 mm 1 mps 734 mmHg 90%
    03:00 +26°C° 0 mm 1 mps 734 mmHg 92%
    04:00 +26°C° 0 mm 1 mps 734 mmHg 93%
    05:00 +26°C° 0 mm 1 mps 734 mmHg 94%
    06:00 +26°C° 0 mm 1 mps 734 mmHg 94%
    07:00 +27°C° 0 mm 1 mps 735 mmHg 88%
    08:00 +29°C° 0 mm 1 mps 735 mmHg 82%
    09:00 +30°C° 0 mm 2 mps 736 mmHg 75%
    10:00 +32°C° 0 mm 2 mps 736 mmHg 67%
    11:00 +35°C° 0 mm 2 mps 735 mmHg 58%
    12:00 +37°C° 0 mm 2 mps 735 mmHg 49%
    13:00 +36°C° 0 mm 1 mps 734 mmHg 50%
    14:00 +36°C° 0 mm 1 mps 733 mmHg 51%
    15:00 +36°C° 0 mm 1 mps 732 mmHg 51%
    16:00 +35°C° 0 mm 1 mps 732 mmHg 54%
    17:00 +34°C° 0 mm 1 mps 732 mmHg 57%
    18:00 +33°C° 0 mm 1 mps 732 mmHg 60%
    19:00 +32°C° 0.7 mm 1 mps 733 mmHg 68%
    20:00 +30°C° 0.7 mm 1 mps 733 mmHg 75%
    21:00 +28°C° 0.7 mm 2 mps 734 mmHg 83%
    22:00 +28°C° 0.1 mm 2 mps 734 mmHg 86%
    23:00 +27°C° 0.1 mm 2 mps 734 mmHg 89%

    23 April, Tuesday

    Time Temperature Precipitation Wind Pressure Humidity
    00:00 +27°C° 0.1 mm 2 mps 735 mmHg 92%
    01:00 +27°C° 0 mm 2 mps 734 mmHg 93%
    02:00 +26°C° 0 mm 2 mps 734 mmHg 94%
    03:00 +26°C° 0 mm 1 mps 733 mmHg 95%
    04:00 +26°C° 0 mm 2 mps 734 mmHg 94%
    05:00 +26°C° 0 mm 2 mps 734 mmHg 94%
    06:00 +27°C° 0 mm 2 mps 734 mmHg 93%
    07:00 +27°C° 0 mm 2 mps 735 mmHg 90%
    08:00 +28°C° 0 mm 2 mps 735 mmHg 86%
    09:00 +28°C° 0 mm 2 mps 736 mmHg 83%
    10:00 +31°C° 0 mm 2 mps 736 mmHg 74%
    11:00 +34°C° 0 mm 2 mps 735 mmHg 64%
    12:00 +36°C° 0 mm 2 mps 735 mmHg 54%
    13:00 +36°C° 0 mm 1 mps 734 mmHg 49%
    14:00 +37°C° 0 mm 1 mps 733 mmHg 45%
    15:00 +39°C° 0 mm 1 mps 732 mmHg 40%
    16:00 +37°C° 0 mm 1 mps 732 mmHg 46%
    17:00 +35°C° 0 mm 1 mps 732 mmHg 52%
    18:00 +34°C° 0 mm 1 mps 732 mmHg 58%
    19:00 +32°C° 0.5 mm 1 mps 733 mmHg 67%
    20:00 +30°C° 0.5 mm 2 mps 734 mmHg 75%
    21:00 +29°C° 0.5 mm 2 mps 734 mmHg 84%
    22:00 +28°C° 0.1 mm 2 mps 734 mmHg 87%
    23:00 +28°C° 0.1 mm 1 mps 734 mmHg 89%

    24 April, Wednesday

    Time Temperature Precipitation Wind Pressure Humidity
    00:00 +27°C° 0.1 mm 1 mps 734 mmHg 92%
    01:00 +27°C° 0 mm 1 mps 734 mmHg 93%
    02:00 +27°C° 0 mm 1 mps 734 mmHg 94%
    03:00 +27°C° 0 mm 1 mps 733 mmHg 95%
    04:00 +27°C° 0 mm 1 mps 734 mmHg 95%
    05:00 +27°C° 0 mm 1 mps 734 mmHg 94%
    06:00 +27°C° 0 mm 1 mps 735 mmHg 94%
    07:00 +28°C° 0 mm 1 mps 735 mmHg 88%
    08:00 +29°C° 0 mm 2 mps 735 mmHg 83%
    09:00 +30°C° 0 mm 2 mps 736 mmHg 78%
    10:00 +31°C° 0 mm 2 mps 735 mmHg 71%
    11:00 +34°C° 0 mm 2 mps 735 mmHg 65%
    12:00 +36°C° 0 mm 2 mps 735 mmHg 59%
    13:00 +35°C° 1.4 mm 2 mps 734 mmHg 63%
    14:00 +33°C° 1.4 mm 1 mps 734 mmHg 67%
    15:00 +33°C° 1.4 mm 1 mps 733 mmHg 70%
    16:00 +31°C° 2.1 mm 1 mps 733 mmHg 77%
    17:00 +30°C° 2.1 mm 1 mps 733 mmHg 84%
    18:00 +29°C° 2.1 mm 2 mps 734 mmHg 91%
    19:00 +28°C° 0.8 mm 2 mps 734 mmHg 92%
    20:00 +27°C° 0.8 mm 1 mps 735 mmHg 93%
    21:00 +27°C° 0.8 mm 1 mps 736 mmHg 95%
    22:00 +27°C° 0 mm 1 mps 736 mmHg 95%
    23:00 +26°C° 0 mm 1 mps 735 mmHg 96%

    25 April, Thursday

    Time Temperature Precipitation Wind Pressure Humidity
    00:00 +26°C° 0 mm 1 mps 735 mmHg 96%
    01:00 +26°C° 0 mm 1 mps 735 mmHg 97%
    02:00 +26°C° 0 mm 1 mps 735 mmHg 97%
    03:00 +26°C° 0 mm 1 mps 734 mmHg 98%
    04:00 +26°C° 0 mm 1 mps 735 mmHg 98%
    05:00 +26°C° 0 mm 1 mps 735 mmHg 98%
    06:00 +23°C° 0 mm 0 mps 735 mmHg 99%
    07:00 +27°C° 0 mm 1 mps 736 mmHg 93%
    08:00 +28°C° 0 mm 1 mps 736 mmHg 87%
    09:00 +29°C° 0 mm 2 mps 737 mmHg 81%
    10:00 +31°C° 0 mm 1 mps 737 mmHg 72%
    11:00 +34°C° 0 mm 1 mps 736 mmHg 62%
    12:00 +36°C° 0 mm 1 mps 736 mmHg 53%
    13:00 +35°C° 0.3 mm 1 mps 735 mmHg 56%
    14:00 +34°C° 0.3 mm 1 mps 734 mmHg 60%
    15:00 +34°C° 0.3 mm 1 mps 733 mmHg 64%
    16:00 +32°C° 2.3 mm 1 mps 733 mmHg 72%
    17:00 +30°C° 2.3 mm 1 mps 733 mmHg 81%
    18:00 +29°C° 2.3 mm 2 mps 733 mmHg 90%
    19:00 +28°C° 0.5 mm 2 mps 734 mmHg 92%
    20:00 +27°C° 0.5 mm 1 mps 735 mmHg 93%
    21:00 +27°C° 0.5 mm 1 mps 736 mmHg 95%
    22:00 +27°C° 0 mm 1 mps 736 mmHg 95%
    23:00 +27°C° 0 mm 2 mps 736 mmHg 95%
    Show more